Date,TemperatureHighF,TemperatureAvgF,TemperatureLowF,DewpointHighF,DewpointAvgF,DewpointLowF,HumidityHigh,HumidityAvg,HumidityLow,PressureMaxIn,PressureMinIn,WindSpeedMaxMPH,WindSpeedAvgMPH,GustSpeedMaxMPH,PrecipitationSumIn
2013-11-1,67.6,61.2,50.2,61.2,55.4,47.1,93,82,56,29.79,29.49,13,1,13,0.02
2013-11-2,67.0,52.4,42.7,48.6,44.2,40.2,93,76,43,29.76,29.58,0,0,0,0.00
2013-11-3,46.2,40.8,31.3,41.5,31.4,17.9,90,70,50,30.43,29.75,18,2,18,0.00
2013-11-4,45.6,33.6,24.6,22.7,18.6,12.1,84,57,26,30.67,30.43,13,0,13,0.07
2013-11-5,52.1,39.5,26.8,37.4,30.9,22.6,91,72,54,30.67,30.49,6,0,6,0.03
2013-11-6,59.4,48.0,34.5,49.4,40.8,31.3,91,77,57,30.49,30.05,10,0,10,0.00
2013-11-7,61.7,52.0,37.4,55.5,48.1,33.6,91,86,78,30.05,29.69,23,1,23,0.05
2013-11-8,47.1,39.4,32.9,33.4,29.3,26.0,90,69,44,30.15,29.87,17,1,17,0.01
2013-11-9,46.7,38.2,29.1,32.1,28.2,24.8,89,68,42,30.25,29.98,9,0,9,0.01
2013-11-10,58.9,44.9,38.9,40.6,34.7,29.3,85,68,39,29.98,29.75,17,1,17,0.01
2013-11-11,53.2,45.0,34.2,32.4,29.1,24.7,80,55,34,30.15,29.92,12,1,12,0.00
2013-11-12,49.1,34.7,25.8,37.1,24.3,17.0,85,66,50,30.25,29.90,21,3,21,0.02
2013-11-13,36.4,29.1,22.4,18.8,15.5,11.5,75,58,36,30.34,30.22,16,1,16,0.00
2013-11-14,51.4,37.7,26.9,21.4,18.4,14.4,76,49,23,30.22,30.09,12,1,12,0.00
2013-11-15,59.3,38.3,24.3,29.4,21.9,16.5,82,57,19,30.22,30.11,8,0,8,0.00
2013-11-16,61.0,43.4,30.0,38.7,32.6,24.2,86,68,36,30.31,30.21,7,0,7,0.00
2013-11-17,57.7,50.1,37.0,55.4,47.2,32.9,93,90,85,30.27,29.78,4,0,4,0.02
2013-11-18,64.1,57.1,47.9,58.9,42.1,24.7,93,61,35,29.78,29.55,17,1,17,0.13
2013-11-19,47.9,40.3,32.1,28.5,24.1,19.3,61,52,43,30.33,29.71,22,4,22,0.00
2013-11-20,42.9,32.3,23.3,20.1,16.1,6.8,79,53,23,30.62,30.33,15,2,15,0.00
2013-11-21,48.8,33.9,18.6,34.2,24.8,14.9,88,71,43,30.64,30.38,4,0,6,0.00
2013-11-22,52.1,44.9,40.1,47.5,40.9,33.9,95,86,77,30.39,29.85,5,0,5,0.10
2013-11-23,51.0,39.9,28.5,46.2,25.5,9.5,91,57,38,30.00,29.85,18,3,18,0.00
2013-11-24,28.5,22.8,0.0,11.3,6.1,-4.5,60,48,25,30.32,29.92,32,2,32,0.00
2013-11-25,33.9,25.4,13.4,15.6,11.2,7.8,81,56,38,30.44,30.28,10,0,11,0.00
2013-11-26,41.0,35.7,30.8,38.9,26.3,13.8,96,71,46,30.31,29.75,5,0,7,0.44
2013-11-27,60.1,44.4,32.2,58.4,41.2,21.9,94,88,65,29.75,29.28,15,2,24,2.42
2013-11-28,32.6,28.2,22.7,24.0,15.0,10.7,82,58,40,30.45,29.69,14,2,19,0.00
2013-11-29,35.5,26.9,19.6,21.5,18.3,14.8,85,70,51,30.73,30.45,9,1,12,0.00
2013-11-30,33.6,25.3,15.0,21.5,14.5,8.0,87,66,34,30.77,30.35,5,0,8,0.00